Location: N�rnberg
(49.4489°N, 11.0797°E)
Time: 04:23:39
(UTC+01:00)

OTV 5 (USA 277) - Visible Passes

Search period start: 17 January 2018 00:00
Search period end: 27 January 2018 00:00
Orbit: 404 x 417 km, 43.0° (Epoch: 07 September)

Date Brightness Start Highest point End Pass type
(mag) Time Alt. Az. Time Alt. Az. Time Alt. Az.
23 Jan ? 19:17:58 10° S 19:18:11 11° S 19:18:11 11° S visible
24 Jan ? 18:28:06 10° SSE 18:28:57 11° SSE 18:29:40 10° SE visible
25 Jan ? 19:12:00 10° SW 19:13:51 19° S 19:13:51 19° S visible
26 Jan ? 18:21:22 10° SSW 18:23:42 17° SSE 18:25:15 13° SE visible
26 Jan ? 19:57:32 10° WSW 19:58:01 13° SW 19:58:01 13° SW visible
